Tracking 29489 objects as of 10-Sep-2024
HD Live streaming from Space Station
objects crossing your sky now

FENGYUN 1C DEB

Track FENGYUN 1C DEB now!
10-day predictions


NORAD ID: 32350
Int'l Code: 1999-025CYT
Perigee: 540.2 km
Apogee: 955.0 km
Inclination: 98.3 °
Period: 99.6 minutes
Semi major axis: 7118 km
RCS: 0.0139 m2 (small)
Launch date: May 10, 1999
Source: People's Republic of China (PRC)
Launch site: Taiyaun Space Center, China (TSC)

Note: This is SATELLITE DEBRIS
Your satellite tracking list
Your tracking list is empty




NASA's NSSDC Master Catalog

Two Line Element Set (TLE):
1 32350U 99025CYT 24253.94227075  .00010285  00000-0  17298-2 0  9995
2 32350  98.2958 301.3232 0291350 265.2277  91.5593 14.45482870908801
Source of the keplerian elements: AFSPC